User: anonymous   Login
Location: Beadle
(51.4667°N, 109.0000°W)
Time: 04:59:39
(UTC+00:00)
Language:

UNISAT 6 - Orbit

View from above orbital plane
View from above orbital plane
View from above satellite
View from above satellite

Ground track
Ground track

The orbit data is extracted from the following two-line orbital elements,

1 40012U 14033C   22176.52520276  .00001063  00000-0  16111-3 0  9998
2 40012  97.6617   4.0575 0058591 131.9581 228.6643 14.74925749431171
Epoch (UTC): 25 June 2022 12:36:17
Eccentricity: 0.0058591
inclination: 97.6617°
perigee height: 604 km
apogee height: 686 km
right ascension of ascending node: 4.0575°
argument of perigee: 131.9581°
revolutions per day: 14.74925749
mean anomaly at epoch: 228.6643°
orbit number at epoch: 43117

The dashed part of the orbit path shows where the satellite is in the earth's shadow,  

DLR